Weather History for HECA - May, 2012

Change the Weather History Date:

Saturday, May 19, 2012

  Actual Average Record
Temperature  
Mean Temperature 75 °F -  
Max Temperature 82 °F 90 °F 104 °F (2007)
Min Temperature 68 °F 67 °F 62 °F (2001)
Cooling Degree Days 10    
Growing Degree Days 25 (Base 50)    
Moisture  
Dew Point 52 °F    
Average Humidity 48    
Maximum Humidity 78    
Minimum Humidity 21    
Precipitation  
Precipitation 0.00 in 0.00 in - ()
Sea Level Pressure  
Sea Level Pressure 29.96 in    
Wind  
Wind Speed 10 mph ()    
Max Wind Speed 16 mph    
Max Gust Speed -    
Visibility 6.2 miles    
Events      
Averages and records for this station are not official NWS values.
T = Trace of Precipitation, MM = Missing Value Source: Averaged Metar Reports

Daily Weather History Graph

Daily Weather History Graph

Search for Another Location

Airport or City:

Trip Planner

Search our weather history database for the weather conditions in past years. The results will help you decide how hot, cold, wet, or windy it might be!

Date:

Astronomy

May. 19, 2012 Rise Set
Actual Time 4:58 AM EET 6:43 PM EET
Civil Twilight 4:31 AM EET 7:10 PM EET
Nautical Twilight 4:00 AM EET 7:42 PM EET
Astronomical Twilight 3:26 AM EET 8:15 PM EET
Moon 3:44 AM EET (5/19) 5:32 PM EET (5/19)
Length of Visible Light 14h 38m
Length of Day
13h 45m
Waning Crescent, 2% of the Moon is Illuminated
May 19
Waning Crescent
May 21
New
May 28
First Quarter
Jun 4
Full
Jun 11
Last Quarter

Hourly Weather History & Observations

Time (EET) Temp. Dew Point Humidity Pressure Visibility Wind Dir Wind Speed Gust Speed Precip Events Conditions
12:00 AM 69.8 °F 59.0 °F 68% 29.92 in - North 12.7 mph - N/A   Clear
12:30 AM 69.8 °F 59.0 °F 68% 29.92 in - North 12.7 mph - N/A   Clear
1:00 AM 68.0 °F 59.0 °F 73% 29.92 in - North 13.8 mph - N/A   Clear
1:30 AM 68.0 °F 59.0 °F 73% 29.92 in - North 13.8 mph - N/A   Clear
2:00 AM 69 °F 57 °F 57% 29.91 in 6 mi North 10.4 mph - -   Clear
2:00 AM 69.8 °F 57.2 °F 64% 29.92 in - North 10.4 mph - N/A   Clear
2:30 AM 69.8 °F 59.0 °F 68% 29.92 in - NNE 11.5 mph - N/A   Clear
3:00 AM 68.0 °F 60.8 °F 78% 29.92 in - NNE 12.7 mph - N/A   Clear
3:30 AM 68.0 °F 60.8 °F 78% 29.92 in - North 9.2 mph - N/A   Clear
4:00 AM 68.0 °F 60.8 °F 78% 29.92 in - NNE 9.2 mph - N/A   Clear
4:30 AM 68.0 °F 59.0 °F 73% 29.92 in - NE 8.1 mph - N/A   Clear
5:00 AM 68.0 °F 60.8 °F 78% 29.92 in - North 5.8 mph - N/A   Clear
5:30 AM 68.0 °F 60.8 °F 78% 29.92 in - NNE 6.9 mph - N/A   Clear
6:00 AM 68.0 °F 60.8 °F 78% 29.95 in - NE 8.1 mph - N/A   Clear
6:30 AM 68.0 °F 60.8 °F 78% 29.95 in - NNE 9.2 mph - N/A   Clear
7:00 AM 69.8 °F 60.8 °F 73% 29.95 in - North 8.1 mph - N/A   Clear
7:30 AM 69.8 °F 59.0 °F 68% 29.98 in - North 8.1 mph - N/A   Clear
8:00 AM 72 °F 61 °F 59% 29.96 in 6 mi NE 8.1 mph - -  
8:00 AM 71.6 °F 60.8 °F 69% 29.98 in - NE 8.1 mph - N/A   Clear
8:30 AM 73.4 °F 57.2 °F 57% 29.98 in 6.2 mi North 6.9 mph - N/A   Partly Cloudy
9:00 AM 73.4 °F 50.0 °F 44% 29.98 in 6.2 mi North 10.4 mph - N/A   Scattered Clouds
9:30 AM 75.2 °F 53.6 °F 47% 29.98 in - NE 8.1 mph - N/A   Clear
10:00 AM 75.2 °F 51.8 °F 44% 29.98 in - NE 10.4 mph - N/A   Clear
10:30 AM 77.0 °F 50.0 °F 39% 29.98 in - NNE 6.9 mph - N/A   Clear
11:00 AM 77.0 °F 50.0 °F 39% 29.98 in 6.2 mi NNW 9.2 mph - N/A   Scattered Clouds
11:30 AM 78.8 °F 50.0 °F 36% 29.98 in 6.2 mi West 9.2 mph - N/A   Scattered Clouds
12:00 PM 78.8 °F 48.2 °F 34% 29.98 in 6.2 mi NW 9.2 mph - N/A   Mostly Cloudy
12:30 PM 80.6 °F 48.2 °F 32% 29.98 in 6.2 mi NW 8.1 mph - N/A   Mostly Cloudy
1:00 PM 82.4 °F 48.2 °F 30% 29.98 in 6.2 mi WNW 10.4 mph - N/A   Scattered Clouds
1:30 PM 82.4 °F 48.2 °F 30% 29.98 in 6.2 mi WNW 10.4 mph - N/A   Scattered Clouds
2:00 PM 80 °F 47 °F 21% 29.96 in 6 mi NNW 6.9 mph - -   Partly Cloudy
2:00 PM 80.6 °F 46.4 °F 30% 29.95 in 6.2 mi NNW 6.9 mph - N/A   Scattered Clouds
2:30 PM 80.6 °F 46.4 °F 30% 29.95 in 6.2 mi NNW 6.9 mph - N/A   Scattered Clouds
3:00 PM 82.4 °F 44.6 °F 26% 29.95 in 6.2 mi NW 8.1 mph - N/A   Partly Cloudy
3:30 PM 82.4 °F 44.6 °F 26% 29.95 in 6.2 mi NW 8.1 mph - N/A   Partly Cloudy
4:00 PM 82.4 °F 44.6 °F 26% 29.92 in 6.2 mi West 10.4 mph - N/A   Partly Cloudy
4:30 PM 82.4 °F 44.6 °F 26% 29.92 in 6.2 mi West 10.4 mph - N/A   Partly Cloudy
5:00 PM 80.6 °F 44.6 °F 28% 29.92 in - NW 13.8 mph - N/A   Clear
5:30 PM 80.6 °F 46.4 °F 30% 29.92 in - NW 5.8 mph - N/A   Clear
6:00 PM 78.8 °F 44.6 °F 30% 29.95 in - NNW 12.7 mph - N/A   Clear
6:30 PM 78.8 °F 46.4 °F 32% 29.95 in - NW 12.7 mph - N/A   Clear
7:00 PM 77.0 °F 46.4 °F 34% 29.95 in - NNW 13.8 mph - N/A   Clear
7:30 PM 77.0 °F 44.6 °F 32% 29.98 in - NW 16.1 mph - N/A   Clear
8:00 PM 76 °F 44 °F 22% 29.99 in 6 mi NNW 13.8 mph - -  
8:00 PM 75.2 °F 44.6 °F 34% 29.98 in - NNW 13.8 mph - N/A   Clear
8:30 PM 73.4 °F 46.4 °F 38% 29.98 in - NNW 12.7 mph - N/A   Clear
9:00 PM 73.4 °F 46.4 °F 38% 30.01 in - North 12.7 mph - N/A   Clear
9:30 PM 73.4 °F 46.4 °F 38% 30.01 in - North 12.7 mph - N/A   Clear
10:00 PM 73.4 °F 44.6 °F 36% 30.01 in - North 12.7 mph - N/A   Clear
10:30 PM 69.8 °F 53.6 °F 56% 30.04 in - NNE 10.4 mph - N/A   Clear